FW6650 Weather Reports


Display with metric or nautical units.
time (UTC)temp
F
wind
direction
speed
MPH
gust
MPH
rain 1hr
in
rain 24hr
in
rain mn
in
humidity
%
barometer
mb
20260510075526 73 232 3.0 8.0 0.00 0.00 0.00 58 1015.1
20260510075026 72 221 2.0 6.0 0.00 0.00 0.00 59 1015.0
20260510074537 73 209 1.0 6.0 0.00 0.00 0.00 58 1015.0
20260510074026 73 201 2.0 6.0 0.00 0.00 0.00 59 1015.0
20260510073528 71 283 2.0 6.0 0.00 0.00 0.00 61 1014.9
20260510073040 71 277 1.0 6.0 0.00 0.00 0.00 60 1015.0
20260510072527 72 267 2.0 6.0 0.00 0.00 0.00 61 1015.2
20260510072027 71 217 3.0 6.0 0.00 0.00 0.00 61 1015.0
20260510071541 71 287 2.0 5.0 0.00 0.00 0.00 62 1015.1
20260510071027 70 0 0.0 7.0 0.00 0.00 0.00 63 1015.0
20260510070527 70 257 2.0 7.0 0.00 0.00 0.00 63 1014.9
20260510070045 70 256 1.0 6.0 0.00 0.00 0.00 63 1015.0
20260510065527 70 286 1.0 4.0 0.00 0.00 0.00 63 1014.9
20260510065028 70 273 1.0 4.0 0.00 0.00 0.00 65 1014.9
20260510064554 69 277 2.0 6.0 0.00 0.00 0.00 65 1014.9
20260510064026 68 259 3.0 6.0 0.00 0.00 0.00 66 1014.8
20260510063526 69 267 1.0 7.0 0.00 0.00 0.00 66 1014.8
20260510063044 69 227 2.0 7.0 0.00 0.00 0.00 65 1014.9
20260510062527 68 264 3.0 7.0 0.00 0.00 0.00 66 1014.9
20260510062028 68 273 2.0 4.0 0.00 0.00 0.00 65 1014.9
20260510061544 68 220 1.0 7.0 0.00 0.00 0.00 66 1014.9
20260510061026 68 254 3.0 7.0 0.00 0.00 0.00 66 1015.0
20260510060526 68 263 2.0 4.0 0.00 0.00 0.00 66 1015.1
20260510060040 67 236 2.0 4.0 0.00 0.00 0.00 66 1015.0
20260510055526 67 0 0.0 2.0 0.00 0.00 0.00 66 1015.0
20260510055026 67 0 0.0 2.0 0.00 0.00 0.00 65 1014.9
20260510054533 67 0 0.0 2.0 0.00 0.00 0.00 66 1014.9
20260510054027 66 0 0.0 2.0 0.00 0.00 0.00 67 1014.8
20260510053525 66 0 0.0 0.0 0.00 0.00 0.00 68 1014.6
20260510053037 66 0 0.0 0.0 0.00 0.00 0.00 68 1014.6
20260510052526 66 0 0.0 0.0 0.00 0.00 0.00 68 1014.6
20260510052026 66 0 0.0 0.0 0.00 0.00 0.00 69 1014.4
20260510051536 65 0 0.0 1.0 0.00 0.00 0.00 69 1014.4
20260510051026 65 0 0.0 2.0 0.00 0.00 0.00 69 1014.2
20260510050526 64 0 0.0 3.0 0.00 0.00 0.00 70 1014.1
20260510050040 64 225 0.0 4.0 0.00 0.00 0.00 70 1014.1
20260510045526 64 0 2.0 4.0 0.00 0.00 0.00 70 1014.3
20260510045026 64 0 2.0 5.0 0.00 0.00 0.00 70 1014.3
20260510044536 64 0 2.0 5.0 0.00 0.00 0.00 70 1014.2
20260510044026 63 154 0.0 4.0 0.00 0.00 0.00 71 1014.3
20260510043527 63 151 1.0 4.0 0.00 0.00 0.00 71 1014.3
20260510043036 63 138 1.0 4.0 0.00 0.00 0.00 70 1014.3
20260510042526 63 0 0.0 2.0 0.00 0.00 0.00 70 1014.2
20260510042026 63 0 0.0 2.0 0.00 0.00 0.00 71 1014.1
20260510041536 63 0 0.0 2.0 0.00 0.00 0.00 71 1014.0
20260510041026 63 0 0.0 2.0 0.00 0.00 0.00 72 1013.9
20260510040526 62 0 0.0 0.0 0.00 0.00 0.00 72 1014.0
20260510040035 62 0 0.0 0.0 0.00 0.00 0.00 73 1013.9
20260510035526 62 0 0.0 2.0 0.00 0.00 0.00 73 1013.8
20260510035026 62 0 0.0 2.0 0.00 0.00 0.00 72 1013.7
20260510034544 62 0 0.0 0.0 0.00 0.00 0.00 73 1013.7
20260510034026 62 0 0.0 3.0 0.00 0.00 0.00 73 1013.7
20260510033525 62 0 1.0 3.0 0.00 0.00 0.00 73 1013.8
20260510033033 62 0 1.0 2.0 0.00 0.00 0.00 72 1013.7
20260510032525 62 78 0.0 2.0 0.00 0.00 0.00 73 1013.7
20260510032026 62 0 0.0 2.0 0.00 0.00 0.00 72 1013.6
20260510031539 62 0 0.0 1.0 0.00 0.00 0.00 73 1013.7
20260510031025 62 0 0.0 2.0 0.00 0.00 0.00 72 1013.6
20260510030526 62 0 0.0 2.0 0.00 0.00 0.00 72 1013.7
20260510030038 62 360 0.0 1.0 0.00 0.00 0.00 72 1013.5
20260510025526 62 0 0.0 2.0 0.00 0.00 0.00 72 1013.6
20260510025028 62 0 0.0 2.0 0.00 0.00 0.00 71 1013.5
20260510024541 62 0 0.0 3.0 0.00 0.00 0.00 71 1013.5
20260510024026 63 0 0.0 3.0 0.00 0.00 0.00 70 1013.4
20260510023525 63 71 2.0 3.0 0.00 0.00 0.00 70 1013.4
20260510023033 63 0 0.0 0.0 0.00 0.00 0.00 71 1013.4
20260510022526 63 0 0.0 0.0 0.00 0.00 0.00 71 1013.5
20260510022025 62 0 0.0 0.0 0.00 0.00 0.00 71 1013.5
20260510021538 62 0 0.0 1.0 0.00 0.00 0.00 72 1013.6
20260510021029 62 0 0.0 1.0 0.00 0.00 0.00 72 1013.5
20260510020525 62 0 0.0 2.0 0.00 0.00 0.00 71 1013.6
20260510020035 63 0 0.0 3.0 0.00 0.00 0.00 71 1013.5
20260510015525 63 0 0.0 3.0 0.00 0.00 0.00 71 1013.5
20260510015026 63 0 0.0 3.0 0.00 0.00 0.00 71 1013.5
20260510014539 63 0 1.0 4.0 0.00 0.00 0.00 71 1013.4
20260510014026 63 0 1.0 4.0 0.00 0.00 0.00 71 1013.4
20260510013526 63 46 2.0 4.0 0.00 0.00 0.00 70 1013.5
20260510013042 63 298 1.0 2.0 0.00 0.00 0.00 70 1013.5
20260510012526 63 297 1.0 2.0 0.00 0.00 0.00 70 1013.5
20260510012026 63 0 0.0 0.0 0.00 0.00 0.00 70 1013.5
20260510011536 63 0 0.0 0.0 0.00 0.00 0.00 70 1013.4
20260510011025 63 0 0.0 0.0 0.00 0.00 0.00 69 1013.4
20260510010525 63 0 0.0 0.0 0.00 0.00 0.00 69 1013.4
20260510010036 63 0 0.0 1.0 0.00 0.00 0.00 69 1013.4
20260510005525 63 0 0.0 2.0 0.00 0.00 0.00 69 1013.4
20260510005024 63 0 0.0 3.0 0.00 0.00 0.00 69 1013.4
20260510004535 64 298 1.0 3.0 0.00 0.00 0.00 68 1013.3
20260510004026 64 360 2.0 3.0 0.00 0.00 0.00 69 1013.3
20260510003536 64 308 0.0 4.0 0.00 0.00 0.00 68 1013.2
20260510003045 64 360 2.0 4.0 0.00 0.00 0.00 68 1013.3
20260510002525 64 229 1.0 4.0 0.00 0.00 0.00 67 1013.4
20260510002024 64 360 1.0 4.0 0.00 0.00 0.00 67 1013.3
20260510001537 64 195 2.0 4.0 0.00 0.00 0.00 66 1013.4
20260510001027 64 200 1.0 4.0 0.00 0.00 0.00 66 1013.4
20260510000526 64 200 1.0 5.0 0.00 0.00 0.00 66 1013.4
20260510000036 64 200 3.0 5.0 0.00 0.00 0.00 66 1013.4
20260509235525 64 132 1.0 4.0 0.00 0.00 0.00 66 1013.4
20260509235025 64 0 0.0 0.0 0.00 0.00 0.00 66 1013.4
20260509234552 64 0 0.0 0.0 0.00 0.00 0.00 66 1013.5
20260509234029 64 0 0.0 2.0 0.00 0.00 0.00 66 1013.6
20260509233527 64 0 0.0 2.0 0.00 0.00 0.00 67 1013.7
20260509233046 64 113 1.0 2.0 0.00 0.00 0.00 67 1013.6
20260509232526 64 0 0.0 0.0 0.00 0.00 0.00 67 1013.7
20260509232025 64 0 0.0 0.0 0.00 0.00 0.00 67 1013.6
20260509231545 65 0 0.0 2.0 0.00 0.00 0.00 68 1013.7
20260509231026 65 0 0.0 2.0 0.00 0.00 0.00 68 1013.6
20260509230525 64 0 0.0 2.0 0.00 0.00 0.00 67 1013.6
20260509230036 65 0 0.0 3.0 0.00 0.00 0.00 67 1013.6
20260509225526 65 0 0.0 3.0 0.00 0.00 0.00 68 1013.6
20260509225025 65 97 2.0 4.0 0.00 0.00 0.00 68 1013.7
20260509224533 65 98 2.0 4.0 0.00 0.00 0.00 68 1013.7
20260509224026 65 156 0.0 2.0 0.00 0.00 0.00 65 1013.7
20260509223526 65 0 0.0 0.0 0.00 0.00 0.00 65 1013.8
20260509223037 65 0 0.0 0.0 0.00 0.00 0.00 65 1013.8
20260509222525 65 0 0.0 0.0 0.00 0.00 0.00 66 1013.8
20260509222025 65 0 0.0 0.0 0.00 0.00 0.00 66 1013.8
20260509221536 65 0 0.0 3.0 0.00 0.00 0.00 67 1013.9
20260509221029 65 0 0.0 5.0 0.00 0.00 0.00 67 1013.9
20260509220525 65 170 2.0 5.0 0.00 0.00 0.00 67 1013.8
20260509220034 65 172 2.0 5.0 0.00 0.00 0.00 67 1013.9
20260509215525 65 177 2.0 4.0 0.00 0.00 0.00 67 1014.0
20260509215026 65 182 2.0 4.0 0.00 0.00 0.00 67 1013.9
20260509214535 65 196 0.0 2.0 0.00 0.00 0.00 68 1013.9
20260509214025 65 0 0.0 2.0 0.00 0.00 0.00 67 1013.9
20260509213526 65 0 0.0 2.0 0.00 0.00 0.00 67 1013.9
20260509213039 65 0 0.0 2.0 0.00 0.00 0.00 67 1013.9
20260509212525 65 0 0.0 3.0 0.00 0.00 0.00 68 1014.0
20260509212025 65 0 0.0 3.0 0.00 0.00 0.00 67 1013.8
20260509211537 66 200 1.0 3.0 0.00 0.00 0.00 67 1013.8
20260509211026 66 200 1.0 3.0 0.00 0.00 0.00 67 1013.9
20260509210526 65 360 0.0 2.0 0.00 0.00 0.00 66 1013.7
20260509210048 65 0 1.0 5.0 0.00 0.00 0.00 66 1013.7
20260509205528 65 0 1.0 5.0 0.00 0.00 0.00 66 1013.6
20260509205027 65 198 1.0 5.0 0.00 0.00 0.00 66 1013.6
20260509204542 65 196 3.0 5.0 0.00 0.00 0.00 66 1013.6
20260509204029 65 180 2.0 3.0 0.00 0.00 0.00 65 1013.7
20260509203527 65 360 1.0 4.0 0.00 0.00 0.00 63 1013.7
20260509203045 66 360 1.0 4.0 0.00 0.00 0.00 63 1013.6
20260509202527 66 0 0.0 1.0 0.00 0.00 0.00 65 1013.7
20260509202030 66 0 0.0 1.0 0.00 0.00 0.00 66 1013.6
20260509201554 66 0 0.0 2.0 0.00 0.00 0.00 66 1013.6
20260509201029 66 0 0.0 2.0 0.00 0.00 0.00 66 1013.6
20260509200529 66 187 0.0 2.0 0.00 0.00 0.00 66 1013.5
20260509200035 66 0 0.0 1.0 0.00 0.00 0.00 65 1013.7
20260509195527 66 0 0.0 0.0 0.00 0.00 0.00 65 1013.6
20260509195031 66 0 0.0 2.0 0.00 0.00 0.00 65 1013.5
20260509194536 67 0 0.0 2.0 0.00 0.00 0.00 65 1013.6
20260509194029 66 187 0.0 1.0 0.00 0.00 0.00 65 1013.5
20260509193527 66 0 0.0 1.0 0.00 0.00 0.00 65 1013.5
20260509193034 66 0 0.0 0.0 0.00 0.00 0.00 65 1013.5
20260509192527 66 0 0.0 3.0 0.00 0.00 0.00 65 1013.5
20260509192027 66 0 0.0 3.0 0.00 0.00 0.00 64 1013.5
20260509191539 66 187 2.0 4.0 0.00 0.00 0.00 65 1013.5
20260509191027 66 188 1.0 4.0 0.00 0.00 0.00 64 1013.5
20260509190527 66 279 0.0 3.0 0.00 0.00 0.00 65 1013.4
20260509190040 66 0 1.0 5.0 0.00 0.00 0.00 65 1013.5
20260509185528 67 280 1.0 6.0 0.00 0.00 0.00 65 1013.5
20260509185024 67 279 2.0 7.0 0.00 0.00 0.00 65 1013.4
20260509184543 67 285 3.0 7.0 0.00 0.00 0.00 64 1013.5
20260509184027 67 252 2.0 7.0 0.00 0.00 0.00 64 1013.4
20260509183527 67 270 3.0 7.0 0.00 0.00 0.00 63 1013.3
20260509183036 67 275 2.0 5.0 0.00 0.00 0.00 63 1013.3
20260509182527 68 240 2.0 6.0 0.00 0.00 0.00 62 1013.3
20260509182030 68 244 2.0 7.0 0.00 0.00 0.00 61 1013.1
20260509181536 68 234 3.0 7.0 0.00 0.00 0.00 61 1013.1
20260509181028 68 251 2.0 7.0 0.00 0.00 0.00 61 1013.1
20260509180528 68 259 3.0 7.0 0.00 0.00 0.00 60 1013.0
20260509180045 68 251 2.0 7.0 0.00 0.00 0.00 59 1012.9
20260509175527 68 257 1.0 7.0 0.00 0.00 0.00 59 1012.8
20260509175027 69 245 2.0 5.0 0.00 0.00 0.00 58 1012.8
20260509174542 69 246 1.0 5.0 0.00 0.00 0.00 57 1012.8
20260509174024 69 239 2.0 6.0 0.00 0.00 0.00 56 1012.8
20260509173524 69 238 3.0 8.0 0.00 0.00 0.00 56 1012.7
20260509173033 69 234 2.0 8.0 0.00 0.00 0.00 56 1012.7
20260509172525 69 286 1.0 8.0 0.00 0.00 0.00 56 1012.5
20260509172026 70 272 4.0 8.0 0.00 0.00 0.00 55 1012.6
20260509171540 70 261 2.0 6.0 0.00 0.00 0.00 53 1012.5
20260509171025 70 277 2.0 6.0 0.00 0.00 0.00 52 1012.6
20260509170525 70 262 3.0 8.0 0.00 0.00 0.00 51 1012.4
20260509170037 70 263 3.0 8.0 0.00 0.00 0.00 50 1012.4
20260509165525 71 250 4.0 8.0 0.00 0.00 0.00 49 1012.5
20260509165028 71 250 2.0 8.0 0.00 0.00 0.00 49 1012.4
20260509164541 72 265 4.0 10.0 0.00 0.00 0.00 48 1012.4
20260509164026 72 335 4.0 10.0 0.00 0.00 0.00 47 1012.4
20260509163523 72 281 4.0 9.0 0.00 0.00 0.00 46 1012.4
20260509163055 73 302 4.0 9.0 0.00 0.00 0.00 46 1012.3
20260509162527 73 244 5.0 10.0 0.00 0.00 0.00 45 1012.3
20260509162025 73 305 5.0 10.0 0.00 0.00 0.00 44 1012.3
20260509161549 73 297 5.0 10.0 0.00 0.00 0.00 44 1012.2
20260509161028 73 295 7.0 10.0 0.00 0.00 0.00 43 1012.2
20260509160526 73 325 5.0 9.0 0.00 0.00 0.00 42 1012.2
20260509160038 74 315 3.0 6.0 0.00 0.00 0.00 41 1012.2
20260509155526 74 62 1.0 6.0 0.00 0.00 0.00 37 1012.1
20260509155025 74 355 3.0 8.0 0.00 0.00 0.00 37 1012.1
20260509154539 75 83 3.0 8.0 0.00 0.00 0.00 36 1012.1
20260509154026 75 107 3.0 8.0 0.00 0.00 0.00 37 1012.1
20260509153526 75 76 2.0 7.0 0.00 0.00 0.00 35 1012.1
20260509153041 75 41 3.0 6.0 0.00 0.00 0.00 35 1012.1
20260509152525 76 43 0.0 5.0 0.00 0.00 0.00 33 1012.1
20260509152026 75 94 1.0 12.0 0.00 0.00 0.00 35 1012.0
20260509151542 75 63 4.0 12.0 0.00 0.00 0.00 34 1012.0
20260509151025 76 314 2.0 10.0 0.00 0.00 0.00 35 1012.0
20260509150526 76 287 2.0 6.0 0.00 0.00 0.00 35 1012.1
20260509150037 76 258 2.0 5.0 0.00 0.00 0.00 35 1012.2
20260509145528 76 0 2.0 5.0 0.00 0.00 0.00 35 1012.2
20260509145029 77 319 1.0 6.0 0.00 0.00 0.00 33 1012.2
20260509144533 76 346 3.0 10.0 0.00 0.00 0.00 34 1012.2
20260509144023 76 183 5.0 10.0 0.00 0.00 0.00 35 1012.2
20260509143523 75 49 2.0 9.0 0.00 0.00 0.00 34 1012.2
20260509143049 76 49 3.0 9.0 0.00 0.00 0.00 35 1012.2
20260509142527 77 144 1.0 7.0 0.00 0.00 0.00 34 1012.2
20260509142027 76 47 3.0 12.0 0.00 0.00 0.00 35 1012.2
20260509141540 77 182 2.0 12.0 0.00 0.00 0.00 35 1012.2
20260509141028 77 246 6.0 12.0 0.00 0.00 0.00 34 1012.2
20260509140527 77 324 3.0 9.0 0.00 0.00 0.00 33 1012.3
20260509140043 77 0 5.0 11.0 0.00 0.00 0.00 32 1012.3
20260509135529 77 269 3.0 11.0 0.00 0.00 0.00 32 1012.3
20260509135027 77 290 5.0 11.0 0.00 0.00 0.00 32 1012.3
20260509134537 77 280 6.0 12.0 0.00 0.00 0.00 31 1012.3
20260509134026 78 167 3.0 12.0 0.00 0.00 0.00 32 1012.3
20260509133527 77 244 5.0 13.0 0.00 0.00 0.00 31 1012.3
20260509133034 77 223 5.0 13.0 0.00 0.00 0.00 32 1012.3
20260509132527 76 224 6.0 14.0 0.00 0.00 0.00 32 1012.3
20260509132027 77 244 7.0 15.0 0.00 0.00 0.00 32 1012.4
20260509131536 77 259 7.0 15.0 0.00 0.00 0.00 32 1012.3
20260509131026 77 260 8.0 15.0 0.00 0.00 0.00 32 1012.4
20260509130526 78 263 7.0 12.0 0.00 0.00 0.00 32 1012.4
20260509130035 77 244 5.0 12.0 0.00 0.00 0.00 33 1012.3
20260509125533 77 246 6.0 15.0 0.00 0.00 0.00 34 1012.4
20260509125026 77 234 7.0 15.0 0.00 0.00 0.00 33 1012.5
20260509124543 77 250 8.0 16.0 0.00 0.00 0.00 33 1012.6
20260509124027 77 234 9.0 16.0 0.00 0.00 0.00 33 1012.7
20260509123527 78 269 6.0 12.0 0.00 0.00 0.00 33 1012.8
20260509123039 77 209 6.0 17.0 0.00 0.00 0.00 35 1012.7
20260509122526 77 249 9.0 17.0 0.00 0.00 0.00 35 1012.9
20260509122026 78 211 6.0 18.0 0.00 0.00 0.00 34 1012.9
20260509121550 77 231 8.0 18.0 0.00 0.00 0.00 35 1012.9
20260509121027 77 196 10.0 17.0 0.00 0.00 0.00 34 1012.8
20260509120527 78 257 6.0 16.0 0.00 0.00 0.00 34 1012.8
20260509120038 78 176 7.0 20.0 0.00 0.00 0.00 34 1012.8
20260509115526 77 249 11.0 20.0 0.00 0.00 0.00 34 1012.8
20260509115026 78 219 7.0 15.0 0.00 0.00 0.00 34 1012.8
20260509114552 78 173 7.0 17.0 0.00 0.00 0.00 34 1012.8
20260509114026 76 217 9.0 17.0 0.00 0.00 0.00 35 1012.9
20260509113527 76 219 9.0 17.0 0.00 0.00 0.00 34 1012.9
20260509113041 77 244 8.0 15.0 0.00 0.00 0.00 35 1012.9
20260509112527 77 197 8.0 15.0 0.00 0.00 0.00 36 1013.0
20260509112036 77 238 7.0 17.0 0.00 0.00 0.00 35 1013.1
20260509111539 76 231 9.0 17.0 0.00 0.00 0.00 35 1013.1
20260509111027 77 259 5.0 16.0 0.00 0.00 0.00 35 1013.0
20260509110526 76 221 7.0 16.0 0.00 0.00 0.00 34 1013.1
20260509110034 76 254 6.0 14.0 0.00 0.00 0.00 35 1013.0
20260509105526 76 275 7.0 17.0 0.00 0.00 0.00 35 1013.0
20260509105029 76 228 8.0 17.0 0.00 0.00 0.00 37 1013.1
20260509104537 76 226 9.0 18.0 0.00 0.00 0.00 36 1013.1
20260509104027 76 261 7.0 20.0 0.00 0.00 0.00 35 1013.1
20260509103527 76 188 10.0 20.0 0.00 0.00 0.00 35 1013.2
20260509103036 76 232 9.0 18.0 0.00 0.00 0.00 34 1013.1
20260509102529 76 217 8.0 18.0 0.00 0.00 0.00 36 1013.2
20260509102027 75 210 10.0 19.0 0.00 0.00 0.00 37 1013.2
20260509101541 75 217 9.0 23.0 0.00 0.00 0.00 37 1013.4
20260509101029 75 235 11.0 23.0 0.00 0.00 0.00 36 1013.4
20260509100527 76 234 9.0 21.0 0.00 0.00 0.00 35 1013.5
20260509100039 75 215 11.0 21.0 0.00 0.00 0.00 32 1013.5
20260509095527 75 219 10.0 19.0 0.00 0.00 0.00 33 1013.6
20260509095027 75 171 8.0 19.0 0.00 0.00 0.00 33 1013.8
20260509094545 75 225 9.0 19.0 0.00 0.00 0.00 34 1013.9
20260509094026 76 213 9.0 18.0 0.00 0.00 0.00 33 1013.9
20260509093526 76 229 6.0 18.0 0.00 0.00 0.00 32 1013.9
20260509093045 76 217 9.0 17.0 0.00 0.00 0.00 32 1013.8
20260509092526 76 227 6.0 16.0 0.00 0.00 0.00 34 1013.8
20260509092026 75 246 8.0 16.0 0.00 0.00 0.00 35 1013.8
20260509091534 75 273 8.0 14.0 0.00 0.00 0.00 35 1013.8
20260509091026 75 254 8.0 14.0 0.00 0.00 0.00 38 1013.9
20260509090529 75 277 5.0 13.0 0.00 0.00 0.00 39 1013.9
20260509090058 75 272 6.0 13.0 0.00 0.00 0.00 37 1013.9
20260509085528 76 236 5.0 12.0 0.00 0.00 0.00 35 1014.0
20260509085027 75 230 6.0 14.0 0.00 0.00 0.00 36 1014.0
20260509084545 75 274 8.0 14.0 0.00 0.00 0.00 37 1014.1
20260509084027 75 242 4.0 11.0 0.00 0.00 0.00 38 1014.1
20260509083527 75 273 4.0 9.0 0.00 0.00 0.00 41 1014.2
20260509083046 75 276 2.0 8.0 0.00 0.00 0.00 42 1014.3
20260509082526 75 265 3.0 7.0 0.00 0.00 0.00 42 1014.2
20260509082028 74 236 1.0 7.0 0.00 0.00 0.00 44 1014.3
20260509081545 74 206 3.0 7.0 0.00 0.00 0.00 45 1014.1
20260509081030 73 252 4.0 7.0 0.00 0.00 0.00 45 1014.1
20260509080526 73 263 2.0 7.0 0.00 0.00 0.00 46 1014.0
20260509080043 73 254 3.0 7.0 0.00 0.00 0.00 48 1013.9